Stations météo

réclame
Mon MeteoGroup
Biarritz, France (7602): Température de l'air & dewpoint: 18.05.2019 05:00:00 - 24.05.2019 05:00:00 (CEST)Biarritz, France (7602): Température de l'air 5cm: 18.05.2019 05:00:00 - 24.05.2019 05:00:00 (CEST)Biarritz, France (7602): Température de l'air -20cm & Température de l'air -100cm: 18.05.2019 05:00:00 - 24.05.2019 05:00:00 (CEST)Biarritz, France (7602): Vitesse du vent & gusts: 18.05.2019 05:00:00 - 24.05.2019 05:00:00 (CEST)Biarritz, France (7602): Direction du vent: 18.05.2019 05:00:00 - 24.05.2019 05:00:00 (CEST)Biarritz, France (7602): reduced air pressure: 18.05.2019 05:00:00 - 24.05.2019 05:00:00 (CEST)Biarritz, France (7602): visibility: 18.05.2019 05:00:00 - 24.05.2019 05:00:00 (CEST)Biarritz, France (7602): Ensoleillement: 18.05.2019 05:00:00 - 24.05.2019 05:00:00 (CEST)Biarritz, France (7602): Quantités de précipitations: 18.05.2019 05:00:00 - 24.05.2019 05:00:00 (CEST)
Date & Time tt [°C] td [°C] tt 5cm [°C] tt -20cm [°C] tt -100cm [°C] ff [km/h] ff [knt] fx [km/h] fx [knt] dd ppp [hPa] vv [km] sd [min] rr [mm]
24.05.2019 05:00:00 14,3 14,0 13,9 16,8 15,4 23 12 36 19 W 1018,8 1,8 0 1,4
24.05.2019 04:00:00 14,3 13,8 13,9 16,8 15,4 24 13 42 23 W 1019,1 11 0 0,0
24.05.2019 03:00:00 14,2 13,7 13,8 16,9 15,4 23 12 43 23 W 1019,5 12 0 0,0
24.05.2019 02:00:00 14,3 13,8 13,8 17,0 15,4 21 11 33 18 W 1020,1 16 0 0,0
24.05.2019 01:00:00 14,6 14,3 14,2 17,1 15,3 17 9 30 16 W 1020,2 9 0 1,8
24.05.2019 00:00:00 14,6 14,3 14,0 17,2 15,4 15 8 35 19 W 1020,6 2,8 0 2,4
23.05.2019 23:00:00 14,7 13,6 14,3 17,2 15,4 20 11 33 18 W 1020,6 15 0 0,0
23.05.2019 22:00:00 14,8 14,0 14,2 17,3 15,3 18 10 34 19 W 1020,3 9 0 0,0
23.05.2019 21:00:00 15,0 13,9 14,7 17,3 15,3 17 9 31 17 W 1019,9 10 0 0,0
23.05.2019 20:00:00 15,0 14,0 14,5 17,4 15,3 17 9 31 17 W 1019,4 8 0 0,0
23.05.2019 19:00:00 15,3 14,7 14,6 17,4 15,3 13 7 34 18 W 1019,1 5 0 0,4
23.05.2019 18:00:00 15,6 13,8 15,8 17,3 15,3 19 10 34 18 W 1019,1 11 0 0,0
23.05.2019 17:00:00 16,6 14,1 17,8 17,2 15,3 22 12 36 20 W 1018,7 11 0 0,0
23.05.2019 16:00:00 17,3 14,2 19,4 17,1 15,3 24 13 41 22 W 1018,6 8 18 0,0
23.05.2019 15:00:00 17,1 14,6 17,5 16,9 15,3 25 13 43 23 W 1018,7 8 5 0,0
23.05.2019 14:00:00 17,8 14,7 18,7 16,8 15,3 26 14 46 25 W 1018,8 14 22 0,0
23.05.2019 13:00:00 17,4 14,7 19,5 16,5 15,2 28 15 39 21 W 1019,0 17 35 0,0
23.05.2019 12:00:00 18,5 13,6 19,2 16,4 15,2 14 8 20 11 W 1018,5 21 7 0,0
23.05.2019 11:00:00 17,8 13,5 19,2 16,3 15,2 4 2 8 5 WNW 1018,1 20 0 0,0
23.05.2019 10:00:00 17,6 13,9 17,3 16,3 15,2 3 2 8 4 SE 1017,8 20 38 0,0
23.05.2019 09:00:00 15,3 14,3 14,9 16,4 15,2 6 3 10 5 SSE 1017,7 10 32 0,0
23.05.2019 08:00:00 13,8 13,3 10,8 16,5 15,2 7 4 11 6 SSE 1017,4 10 60 0,0
23.05.2019 07:00:00 12,6 12,4 6,6 16,6 15,2 8 5 11 6 SSE 1017,0 7 2 0,0
23.05.2019 06:00:00 12,2 12,0 6,6 16,7 15,2 6 3 10 5 S 1016,8 3,7 0 0,2
23.05.2019 05:00:00 12,8 12,6 8,0 16,9 15,2 7 4 8 4 S 1016,9 2,4 0 0,0
23.05.2019 04:00:00 13,2 12,9 7,8 17,0 15,2 5 3 9 5 S 1017,0 2,8 0 0,0
23.05.2019 03:00:00 14,3 14,0 9,8 17,1 15,1 5 3 15 8 SSE 1017,1 2,2 0 0,0
23.05.2019 02:00:00 14,8 14,5 13,7 17,2 15,1 8 5 16 9 WSW 1017,8 4,7 0 0,0
23.05.2019 01:00:00 14,8 14,3 13,7 17,3 15,1 9 5 18 10 WSW 1017,7 6 0 0,0
23.05.2019 00:00:00 15,1 14,3 13,3 17,4 15,1 9 5 13 7 SW 1017,7 13 0 0,0
22.05.2019 23:00:00 15,6 14,1 11,1 17,5 15,1 8 4 11 6 SW 1017,9 12 0 0,0
22.05.2019 22:00:00 16,8 13,9 11,9 17,5 15,1 4 2 14 8 W 1017,4 22 2 0,0
22.05.2019 21:00:00 18,9 14,2 18,7 17,5 15,1 10 5 18 10 N 1017,3 30 55 0,0
22.05.2019 20:00:00 21,1 15,0 21,8 17,5 15,1 12 6 19 10 E 1017,0 35 60 0,0
22.05.2019 19:00:00 21,5 15,1 24,4 17,5 15,1 9 5 28 15 N 1017,3 19 60 0,0
22.05.2019 18:00:00 20,1 14,5 23,9 17,3 15,1 16 9 37 20 N 1017,7 21 60 0,0
22.05.2019 17:00:00 19,7 14,7 24,2 17,1 15,1 18 10 28 15 N 1018,1 20 60 0,0
22.05.2019 16:00:00 18,9 14,6 24,3 16,7 15,1 18 10 29 16 N 1018,6 18 60 0,0
22.05.2019 15:00:00 18,7 15,0 23,6 16,3 15,1 15 8 27 15 N 1019,0 18 60 0,0
22.05.2019 14:00:00 18,0 13,9 23,6 15,9 15,0 17 9 27 14 NNW 1019,5 19 60 0,0
22.05.2019 13:00:00 17,5 14,0 20,9 15,6 15,0 13 7 21 12 NNW 1019,8 18 54 0,0
22.05.2019 12:00:00 16,8 13,9 17,8 15,5 15,0 11 6 24 13 NW 1020,3 20 16 0,0
22.05.2019 11:00:00 16,1 12,8 18,1 15,3 15,0 7 4 12 7 W 1020,4 6 33 0,0
22.05.2019 10:00:00 15,1 13,0 15,1 15,4 15,0 8 5 16 9 W 1020,6 17 9 0,0
22.05.2019 09:00:00 14,1 12,7 13,5 15,4 15,0 12 6 19 10 W 1020,6 15 0 0,0
22.05.2019 08:00:00 13,2 12,1 12,2 15,5 15,1 5 3 11 6 WSW 1020,4 13 0 0,0
22.05.2019 07:00:00 12,6 11,5 12,1 15,5 15,0 4 2 8 4 SSW 1020,2 16 0 0,0
22.05.2019 06:00:00 12,5 11,6 11,6 15,6 15,0 4 2 9 5 SSW 1020,2 17 0 0,0
22.05.2019 05:00:00 12,2 11,4 11,2 15,6 15,0 5 3 8 5 S 1020,1 12 0 0,0
22.05.2019 04:00:00 12,0 11,5 9,3 15,7 15,0 4 2 10 5 WSW 1020,3 13 0 0,0
22.05.2019 03:00:00 11,2 10,4 9,2 15,9 15,0 6 3 10 5 WSW 1020,2 14 0 0,0
22.05.2019 02:00:00 11,8 11,0 10,0 15,9 15,0 5 3 12 6 WSW 1020,4 14 0 0,0
22.05.2019 01:00:00 12,0 11,4 7,7 16,1 15,0 7 4 9 5 SW 1020,6 11 0 0,0
22.05.2019 00:00:00 12,8 11,9 7,3 16,1 15,0 0 0 5 3 N 1020,8 13 0 0,0
21.05.2019 23:00:00 13,4 12,0 8,4 16,2 15,0 3 2 7 4 W 1020,6 9 0 0,0
21.05.2019 22:00:00 14,2 11,7 12,8 16,3 15,0 6 3 18 10 N 1020,1 36 0 0,0
21.05.2019 21:00:00 14,9 11,5 14,4 16,3 15,0 11 6 22 12 N 1019,7 45 47 0,0
21.05.2019 20:00:00 16,1 11,3 16,7 16,3 15,0 14 7 22 12 NNW 1019,4 36 60 0,0
21.05.2019 19:00:00 16,3 10,8 19,8 16,3 15,0 16 9 26 14 N 1019,2 26 60 0,0
21.05.2019 18:00:00 16,5 10,8 20,7 16,1 15,0 16 9 31 17 NNW 1019,3 24 60 0,0
21.05.2019 17:00:00 16,2 10,1 21,0 15,9 15,0 17 9 33 18 NNW 1019,4 19 60 0,0
21.05.2019 16:00:00 16,6 11,1 21,8 15,5 15,0 16 9 28 15 NW 1019,4 19 60 0,0
21.05.2019 15:00:00 16,3 11,9 21,5 15,1 15,0 18 10 34 19 NNW 1019,6 18 60 0,0
21.05.2019 14:00:00 15,9 10,6 20,3 14,7 15,0 19 10 32 17 NNW 1019,8 19 60 0,0
21.05.2019 13:00:00 16,2 10,7 17,4 14,4 15,0 16 9 26 14 NNW 1019,7 19 40 0,0
21.05.2019 12:00:00 15,8 11,4 17,3 14,2 15,0 6 3 16 9 NNE 1019,5 20 28 0,0
21.05.2019 11:00:00 16,3 10,4 18,8 14,0 15,0 5 3 16 9 S 1019,3 20 51 0,0
21.05.2019 10:00:00 14,7 10,7 14,0 13,9 15,0 9 5 15 8 ESE 1019,3 18 58 0,0
21.05.2019 09:00:00 12,6 11,3 11,0 13,9 15,0 8 4 12 6 SE 1019,0 10 24 0,0
21.05.2019 08:00:00 11,0 11,0 9,6 14,0 15,1 5 3 12 7 SSE 1018,9 10 0 0,0
21.05.2019 07:00:00 9,9 9,9 4,4 14,1 15,1 8 4 10 6 SSE 1018,4 8 0 0,2
21.05.2019 06:00:00 8,2 8,1 2,8 14,2 15,0 6 3 13 7 SSE 1018,1 6 0 0,0
21.05.2019 05:00:00 8,8 8,7 3,2 14,4 15,1 6 3 10 5 SSE 1017,8 3,4 0 0,0
21.05.2019 04:00:00 8,9 8,6 3,6 14,5 15,1 6 3 8 4 S 1017,7 2,1 0 0,0
21.05.2019 03:00:00 9,4 9,1 3,6 14,5 15,0 5 3 11 6 S 1017,7 2,3 0 0,0
21.05.2019 02:00:00 9,9 9,4 4,0 14,7 15,1 0 0 6 4 N 1018,0 1,2 0 0,0
21.05.2019 01:00:00 10,0 9,4 4,7 14,7 15,1 5 3 10 5 S 1018,1 4,7 0 0,0
21.05.2019 00:00:00 11,6 10,3 5,3 14,8 15,1 0 0 9 5 N 1017,8 6 0 0,0
20.05.2019 23:00:00 12,4 10,8 6,8 14,9 15,1 5 3 10 6 NE 1017,8 16 0 0,0
20.05.2019 22:00:00 13,2 11,1 11,6 14,9 15,1 7 4 22 12 N 1016,9 19 5 0,0
20.05.2019 21:00:00 14,3 11,1 14,4 14,8 15,1 9 5 22 12 N 1016,6 24 60 0,0
20.05.2019 20:00:00 15,4 10,4 15,7 14,8 15,1 13 7 23 13 N 1016,4 30 60 0,0
20.05.2019 19:00:00 15,8 11,4 19,3 14,7 15,1 13 7 26 14 N 1016,3 20 60 0,0
20.05.2019 18:00:00 16,0 12,2 17,0 14,5 15,1 17 9 31 17 NW 1016,2 19 49 0,0
20.05.2019 17:00:00 15,0 11,8 17,3 14,3 15,2 18 10 32 18 NW 1016,3 19 40 0,0
20.05.2019 16:00:00 15,4 12,0 17,2 14,1 15,1 19 10 38 20 NW 1016,5 20 39 0,0
20.05.2019 15:00:00 14,7 11,1 16,1 14,0 15,1 23 13 35 19 W 1016,7 20 18 0,0
20.05.2019 14:00:00 14,6 11,9 14,7 13,9 15,2 19 11 33 18 W 1016,6 20 1 0,0
20.05.2019 13:00:00 13,9 11,8 13,8 13,8 15,2 18 10 31 17 W 1016,7 20 0 0,0
20.05.2019 12:00:00 13,4 11,3 12,3 13,8 15,2 13 7 33 18 W 1016,5 30 0 0,0
20.05.2019 11:00:00 12,5 11,1 10,8 13,8 15,2 14 8 26 14 WSW 1016,5 20 0 0,0
20.05.2019 10:00:00 11,5 10,6 10,4 13,8 15,2 8 4 24 13 SW 1016,3 7 0 0,4
20.05.2019 09:00:00 10,8 10,0 9,8 13,9 15,2 8 4 20 11 S 1015,9 6 0 1,0
20.05.2019 08:00:00 10,6 9,8 9,8 14,0 15,2 7 4 21 12 SSW 1015,4 1,1 0 6,7
20.05.2019 07:00:00 11,3 9,6 10,7 14,0 15,2 11 6 27 15 WSW 1015,0 20 0 0,0
20.05.2019 06:00:00 11,6 9,5 11,1 14,0 15,2 16 8 32 17 WSW 1014,6 23 0 0,0
20.05.2019 05:00:00 11,7 9,6 10,9 14,1 15,2 10 5 29 16 SW 1014,8 23 0 0,0
20.05.2019 04:00:00 11,9 10,0 11,4 14,1 15,3 10 5 18 10 SW 1014,8 21 0 0,0
20.05.2019 03:00:00 12,1 10,3 11,3 14,2 15,2 7 4 28 15 SW 1015,1 17 0 0,0
20.05.2019 02:00:00 12,5 10,0 11,4 14,2 15,3 16 9 33 18 W 1015,6 24 0 0,0
20.05.2019 01:00:00 12,8 10,2 11,9 14,3 15,3 20 11 35 19 W 1016,1 27 0 0,0
20.05.2019 00:00:00 12,7 10,4 11,9 14,3 15,3 19 10 35 19 WNW 1016,1 24 0 0,0
19.05.2019 23:00:00 12,8 10,5 12,0 14,3 15,3 17 9 37 20 WNW 1016,0 26 0 0,0
19.05.2019 22:00:00 12,8 10,5 11,6 14,3 15,3 19 10 40 21 WNW 1015,3 27 0 0,2
19.05.2019 21:00:00 12,6 11,7 11,6 14,3 15,3 29 16 44 24 WNW 1014,9 2,0 0 2,2
19.05.2019 20:00:00 13,4 11,3 13,2 14,3 15,3 21 11 41 22 WNW 1014,4 20 0 0,0
19.05.2019 19:00:00 13,4 10,7 13,4 14,2 15,4 29 16 48 26 WNW 1014,2 30 1 0,0
19.05.2019 18:00:00 14,0 12,0 12,1 14,2 15,4 32 17 48 26 WNW 1014,1 12 2 0,2
19.05.2019 17:00:00 12,7 11,8 11,6 14,1 15,4 31 17 54 29 W 1013,9 14 0 3,3
19.05.2019 16:00:00 12,7 11,9 11,9 14,1 15,4 29 16 52 28 W 1013,9 7 0 2,8
19.05.2019 15:00:00 13,2 12,1 13,1 13,9 15,4 24 13 52 28 W 1013,6 12 4 0,0
19.05.2019 14:00:00 13,8 11,7 11,8 13,8 15,4 22 12 44 24 WNW 1013,1 17 0 1,8
19.05.2019 13:00:00 13,1 12,3 12,5 13,8 15,4 21 11 37 20 NW 1012,8 4,0 0 0,2
19.05.2019 12:00:00 13,0 12,1 10,6 13,8 15,5 15 8 33 18 WNW 1012,6 4,8 0 3,9
19.05.2019 11:00:00 12,1 10,7 11,0 13,7 15,4 24 13 43 23 NNW 1012,2 3,1 0 0,4
19.05.2019 10:00:00 13,0 11,6 11,1 13,8 15,5 24 13 35 19 WNW 1011,6 20 0 0,8
19.05.2019 09:00:00 12,0 11,5 10,6 13,8 15,5 5 3 12 7 SSW 1011,3 11 0 0,2
19.05.2019 08:00:00 11,4 10,5 10,2 13,8 15,5 11 6 34 19 WNW 1011,1 6 0 0,4
19.05.2019 07:00:00 11,1 9,4 10,2 13,8 15,5 26 14 41 22 WNW 1010,7 11 0 0,2
19.05.2019 06:00:00 11,9 11,3 10,5 13,9 15,5 22 12 36 19 WNW 1010,6 4,9 0 3,2
19.05.2019 05:00:00 11,8 11,2 10,8 13,9 15,5 20 11 31 17 WNW 1010,8 2,7 0 1,7
19.05.2019 04:00:00 11,9 11,3 10,7 14,0 15,6 18 10 35 19 WNW 1010,6 17 0 1,2
19.05.2019 03:00:00 11,6 11,0 10,8 14,1 15,6 25 13 49 26 WNW 1010,7 5 0 1,8
19.05.2019 02:00:00 12,0 11,5 11,2 14,1 15,6 33 18 61 33 WNW 1010,7 12 0 1,2
19.05.2019 01:00:00 12,0 11,4 11,0 14,2 15,6 39 21 67 36 WNW 1010,9 10 0 0,8
19.05.2019 00:00:00 11,6 11,3 10,9 14,3 15,6 29 16 60 33 W 1011,0 1,0 0 5,9
18.05.2019 23:00:00 11,8 11,3 9,7 14,3 15,6 27 15 48 26 W 1011,1 3,0 0 2,1
18.05.2019 22:00:00 10,0 9,7 9,1 14,4 15,6 15 8 42 23 WSW 1011,2 3,5 0 7,2
18.05.2019 21:00:00 9,9 9,4 9,2 14,5 15,6 13 7 36 19 SW 1011,4 2,4 0 5,1
18.05.2019 20:00:00 10,2 9,4 9,4 14,6 15,7 15 8 36 20 SW 1011,2 3,6 0 3,8
18.05.2019 19:00:00 10,1 9,5 9,7 14,6 15,7 8 4 35 19 SW 1011,5 3,7 0 3,9
18.05.2019 18:00:00 10,8 10,0 9,9 14,6 15,7 17 9 37 20 WSW 1011,6 8 0 1,2
18.05.2019 17:00:00 10,8 9,6 10,5 14,6 15,7 18 10 35 19 WSW 1011,4 20 0 0,2
18.05.2019 16:00:00 11,0 9,9 10,2 14,6 15,7 16 9 37 20 WSW 1011,2 9 0 1,2
18.05.2019 15:00:00 10,8 9,7 9,8 14,6 15,7 18 10 53 29 W 1011,4 2,7 4 2,6
18.05.2019 14:00:00 13,2 9,6 12,9 14,6 15,7 24 13 53 28 W 1010,9 22 8 0,0
18.05.2019 13:00:00 11,6 9,5 9,9 14,6 15,7 24 13 47 26 W 1010,6 24 0 2,2
18.05.2019 12:00:00 10,7 9,0 9,3 14,6 15,7 14 7 38 21 WSW 1010,5 37 1 1,6
18.05.2019 11:00:00 10,1 9,0 9,7 14,7 15,7 15 8 36 20 SW 1010,4 3,2 0 0,8
18.05.2019 10:00:00 10,7 8,6 9,1 14,7 15,7 18 10 41 22 WSW 1010,1 28 0 0,0
18.05.2019 09:00:00 9,8 8,2 9,1 14,8 15,7 12 7 42 23 SW 1010,0 13 0 0,6
18.05.2019 08:00:00 10,5 7,7 8,6 15,0 15,7 24 13 44 24 W 1010,1 18 0 0,2
18.05.2019 07:00:00 10,1 7,7 8,6 15,1 15,8 22 12 43 23 W 1010,0 9 0 1,2
18.05.2019 06:00:00 9,8 8,6 8,9 15,2 15,8 32 18 51 28 WNW 1009,9 2,6 0 1,2
18.05.2019 05:00:00 9,6 8,8 8,4 15,3 15,7 17 9 44 24 NW 1010,1 2,3 0 4,3

tt = Température de l'air
td = dewpoint
tt 5cm = Température de l'air 5cm
tt -20cm = Température de l'air -20cm
tt -100cm = Température de l'air -100cm
ff = Vitesse du vent
fx = gusts
dd = Direction du vent
ppp = reduced air pressure
vv = visibility
sd = Ensoleillement
rr = Quantités de précipitations

stations d'obs. à proximité